Starlink 35467

operational
NORAD ID: 66343 Int'l Des: 2025-253 Owner: SPXS Country: US Constellation: starlink
NOTLE

About Starlink 35467

Description loading...

Live Position

Loading 3D Globe...

Upcoming Passes

Altitude History

Altitude vs Time

uPlot chart will show altitude changes over time

Two-Line Element Set

1 66343U 25253AA 25355.24399970 .00034962 00000-0 83884-3 0 9990
2 66343 43.0077 296.7079 0004241 277.1761 82.8614 15.40748586 8237
Epoch: Dec 21, 2025 • Age: 15 hours

Current Status

Altitude 445.8 km
Velocity 7.65 km/s
Sub-Earth Point 24.94°N, 45.74°E
Launch Date Nov 6, 2025
Age 0.1 years
Type internet

Technical Details

Classification Payload
Mass 575.00 kg
Dry Mass 530.00 kg
Total Mass 575.00 kg
Length 0.30 m
Diameter 4.10 m
Span 29.00 m
Shape Box + pan
Manufacturer SPXS
Bus Type Starlink V2MO
Phase Status In Orbit
Owner/State SPXS/US

Large Constellations

Loading constellations...